FW7460 Weather Reports


Display with metric or nautical units.
time (UTC)temp
F
wind
direction
speed
MPH
gust
MPH
rain 1hr
in
rain 24hr
in
rain mn
in
humidity
%
barometer
mb
20240227063056 46 200 6.0 13.0 0.00 0.00 0.00 38 994.2
20240227062555 40 75 3.0 3.0 0.00 0.00 0.00 46 994.4
20240227062055 44 271 3.0 7.0 0.00 0.00 0.00 39 994.4
20240227061554 42 284 0.0 0.0 0.00 0.00 0.00 43 994.7
20240227061052 41 330 1.0 1.0 0.00 0.00 0.00 44 994.9
20240227060551 41 55 0.0 1.0 0.00 0.00 0.00 43 994.8
20240227060050 41 270 0.0 1.0 0.00 0.00 0.00 44 995.0
20240227055549 41 235 2.0 3.0 0.00 0.00 0.00 45 995.3
20240227055046 39 339 1.0 3.0 0.00 0.00 0.00 45 995.1
20240227054545 41 173 2.0 2.0 0.00 0.00 0.00 45 995.1
20240227054044 40 239 1.0 1.0 0.00 0.00 0.00 44 995.5
20240227053543 41 247 1.0 1.0 0.00 0.00 0.00 44 995.4
20240227053040 42 299 0.0 2.0 0.00 0.00 0.00 42 995.5
20240227052540 41 121 3.0 3.0 0.00 0.00 0.00 42 995.8
20240227052038 42 162 1.0 2.0 0.00 0.00 0.00 42 995.8
20240227051537 43 275 1.0 2.0 0.00 0.00 0.00 41 995.6
20240227051036 42 319 1.0 2.0 0.00 0.00 0.00 41 995.8
20240227050535 43 317 2.0 2.0 0.00 0.00 0.00 39 995.7
20240227050036 44 287 2.0 3.0 0.00 0.00 0.00 39 996.0
20240227045534 45 350 0.0 2.0 0.00 0.00 0.00 37 996.0
20240227045033 45 155 3.0 5.0 0.00 0.00 0.00 37 995.8
20240227044532 45 142 3.0 5.0 0.00 0.00 0.00 37 996.1
20240227044032 45 137 5.0 6.0 0.00 0.00 0.00 37 996.2
20240227043532 44 161 5.0 7.0 0.00 0.00 0.00 38 996.2
20240227043031 44 165 5.0 7.0 0.00 0.00 0.00 38 996.2
20240227042529 44 164 3.0 3.0 0.00 0.00 0.00 38 996.2
20240227042028 46 155 1.0 2.0 0.00 0.00 0.00 36 996.4
20240227041526 46 245 2.0 2.0 0.00 0.00 0.00 35 996.2
20240227041026 46 291 0.0 0.0 0.00 0.00 0.00 35 996.4
20240227040525 46 272 2.0 2.0 0.00 0.00 0.00 35 996.3
20240227040023 46 284 2.0 2.0 0.00 0.00 0.00 34 996.6
20240227035523 48 191 2.0 5.0 0.00 0.00 0.00 33 996.6
20240227035023 46 162 5.0 7.0 0.00 0.00 0.00 34 996.6
20240227034521 46 168 6.0 7.0 0.00 0.00 0.00 35 996.7
20240227034022 47 164 6.0 8.0 0.00 0.00 0.00 34 996.4
20240227033520 47 162 7.0 8.0 0.00 0.00 0.00 34 996.4
20240227033021 48 167 4.0 5.0 0.00 0.00 0.00 33 996.7
20240227032519 49 163 5.0 6.0 0.00 0.00 0.00 31 996.7
20240227032018 52 177 2.0 6.0 0.00 0.00 0.00 28 996.7
20240227031514 51 194 9.0 10.0 0.00 0.00 0.00 28 996.7
20240227031012 52 150 5.0 7.0 0.00 0.00 0.00 27 996.7
20240227030512 52 229 4.0 9.0 0.00 0.00 0.00 27 996.9
20240227030011 52 254 3.0 15.0 0.00 0.00 0.00 27 996.7
20240227025512 52 200 2.0 3.0 0.00 0.00 0.00 27 996.6
20240227025010 53 164 4.0 6.0 0.00 0.00 0.00 26 996.6
20240227024508 53 150 5.0 6.0 0.00 0.00 0.00 27 996.7
20240227024006 54 200 2.0 2.0 0.00 0.00 0.00 26 996.7
20240227023506 54 209 2.0 7.0 0.00 0.00 0.00 25 997.0
20240227023006 53 194 6.0 8.0 0.00 0.00 0.00 25 996.9
20240227022505 53 200 2.0 7.0 0.00 0.00 0.00 26 996.6
20240227022002 53 218 4.0 6.0 0.00 0.00 0.00 25 996.8
20240227021502 54 196 6.0 8.0 0.00 0.00 0.00 25 996.7
20240227021001 54 236 9.0 20.0 0.00 0.00 0.00 24 996.9
20240227020500 55 259 11.0 13.0 0.00 0.00 0.00 24 996.8
20240227015959 54 150 4.0 11.0 0.00 0.00 0.00 24 996.9
20240227015458 54 208 5.0 9.0 0.00 0.00 0.00 23 996.9
20240227014956 55 198 4.0 7.0 0.00 0.00 0.00 23 996.7
20240227014455 55 203 7.0 9.0 0.00 0.00 0.00 22 996.6
20240227013954 55 176 10.0 13.0 0.00 0.00 0.00 22 996.4
20240227013454 55 190 5.0 17.0 0.00 0.00 0.00 22 996.8
20240227012955 55 190 5.0 17.0 0.00 0.00 0.00 22 996.8
20240227012453 56 184 5.0 17.0 0.00 0.00 0.00 22 996.7
20240227010512 57 231 6.0 10.0 0.00 0.00 0.00 19 996.6
20240227010011 57 231 6.0 10.0 0.00 0.00 0.00 19 996.6
20240227005509 57 246 14.0 15.0 0.00 0.00 0.00 19 996.6
20240227005009 57 212 10.0 22.0 0.00 0.00 0.00 19 996.4
20240227004508 57 188 10.0 15.0 0.00 0.00 0.00 18 996.4
20240227004008 57 222 13.0 17.0 0.00 0.00 0.00 18 996.4
20240227003506 58 229 7.0 10.0 0.00 0.00 0.00 17 996.4
20240227003005 58 190 14.0 20.0 0.00 0.00 0.00 17 996.6
20240227002505 58 187 7.0 13.0 0.00 0.00 0.00 17 996.4
20240227002003 59 224 11.0 14.0 0.00 0.00 0.00 16 996.3
20240227001503 59 209 6.0 11.0 0.00 0.00 0.00 17 996.4
20240227001002 59 179 9.0 15.0 0.00 0.00 0.00 16 996.4
20240227000501 60 202 8.0 14.0 0.00 0.00 0.00 16 996.3
20240227000000 60 198 12.0 17.0 0.00 0.00 0.00 16 996.6
20240226235459 60 239 5.0 11.0 0.00 0.00 0.00 16 996.1
20240226234959 61 175 4.0 8.0 0.00 0.00 0.00 16 996.3
20240226234458 61 194 8.0 11.0 0.00 0.00 0.00 15 996.3
20240226233958 61 227 5.0 7.0 0.00 0.00 0.00 15 996.2
20240226233457 60 265 9.0 14.0 0.00 0.00 0.00 15 996.3
20240226232955 60 280 6.0 10.0 0.00 0.00 0.00 15 996.1
20240226232454 61 237 12.0 15.0 0.00 0.00 0.00 15 996.4
20240226231952 61 221 9.0 14.0 0.00 0.00 0.00 15 996.6
20240226231451 61 224 15.0 22.0 0.00 0.00 0.00 15 996.3
20240226230947 61 73 11.0 18.0 0.00 0.00 0.00 15 996.6
20240226230445 61 218 11.0 20.0 0.00 0.00 0.00 15 996.7
20240226225945 61 216 11.0 13.0 0.00 0.00 0.00 14 996.2
20240226225444 61 173 16.0 17.0 0.00 0.00 0.00 15 996.4
20240226224944 61 243 10.0 15.0 0.00 0.00 0.00 15 996.4
20240226224444 60 251 9.0 15.0 0.00 0.00 0.00 15 996.7
20240226223941 61 217 4.0 10.0 0.00 0.00 0.00 15 996.6
20240226223441 61 254 9.0 16.0 0.00 0.00 0.00 15 996.7
20240226222940 62 189 8.0 13.0 0.00 0.00 0.00 15 996.7
20240226222439 60 194 9.0 14.0 0.00 0.00 0.00 15 997.1
20240226221936 60 202 10.0 20.0 0.00 0.00 0.00 16 997.0
20240226221435 61 240 18.0 21.0 0.00 0.00 0.00 15 996.8
20240226220935 61 254 9.0 16.0 0.00 0.00 0.00 16 997.3
20240226220434 60 232 7.0 11.0 0.00 0.00 0.00 16 996.9
20240226215932 60 274 7.0 27.0 0.00 0.00 0.00 16 997.5
20240226215432 60 343 23.0 30.0 0.00 0.00 0.00 15 996.6
20240226214931 61 198 9.0 21.0 0.00 0.00 0.00 15 997.1
20240226214431 60 245 21.0 26.0 0.00 0.00 0.00 14 997.0
20240226213930 60 282 29.0 33.0 0.00 0.00 0.00 14 997.3
20240226213430 61 227 16.0 24.0 0.00 0.00 0.00 15 997.0
20240226212929 62 212 12.0 17.0 0.00 0.00 0.00 16 996.9
20240226212427 61 157 3.0 11.0 0.00 0.00 0.00 16 997.1
20240226211923 62 237 16.0 24.0 0.00 0.00 0.00 15 997.0
20240226211422 62 230 6.0 15.0 0.00 0.00 0.00 16 996.9
20240226210921 61 215 10.0 15.0 0.00 0.00 0.00 16 997.5
20240226210410 61 205 3.0 9.0 0.00 0.00 0.00 17 997.4
20240226205909 61 165 7.0 13.0 0.00 0.00 0.00 17 997.4
20240226205407 61 195 7.0 13.0 0.00 0.00 0.00 16 997.4
20240226204906 60 267 10.0 20.0 0.00 0.00 0.00 18 997.6
20240226204404 60 209 3.0 14.0 0.00 0.00 0.00 18 997.8
20240226203903 61 114 10.0 11.0 0.00 0.00 0.00 17 997.6
20240226203402 60 212 15.0 22.0 0.00 0.00 0.00 18 997.7
20240226202902 61 236 3.0 10.0 0.00 0.00 0.00 17 998.0
20240226202401 61 227 10.0 17.0 0.00 0.00 0.00 18 998.2
20240226201858 61 203 7.0 9.0 0.00 0.00 0.00 18 998.2
20240226201356 60 214 13.0 15.0 0.00 0.00 0.00 19 998.2
20240226200856 61 227 14.0 20.0 0.00 0.00 0.00 18 998.6
20240226200354 59 273 14.0 30.0 0.00 0.00 0.00 19 998.6
20240226195851 60 223 22.0 25.0 0.00 0.00 0.00 19 998.7
20240226195349 60 228 15.0 20.0 0.00 0.00 0.00 19 998.6
20240226194846 60 216 20.0 29.0 0.00 0.00 0.00 17 998.9
20240226194345 60 200 13.0 23.0 0.00 0.00 0.00 18 999.1
20240226193845 60 203 10.0 24.0 0.00 0.00 0.00 18 999.1
20240226193344 61 217 9.0 25.0 0.00 0.00 0.00 19 999.3
20240226192843 59 152 15.0 17.0 0.00 0.00 0.00 19 999.1
20240226192342 59 191 10.0 23.0 0.00 0.00 0.00 20 999.5
20240226191839 60 216 18.0 31.0 0.00 0.00 0.00 19 999.5
20240226191338 60 191 7.0 14.0 0.00 0.00 0.00 20 999.7
20240226190837 59 191 9.0 16.0 0.00 0.00 0.00 19 999.8
20240226190336 59 239 14.0 16.0 0.00 0.00 0.00 21 999.8
20240226185835 59 248 16.0 30.0 0.00 0.00 0.00 20 1000.2
20240226185334 60 225 19.0 25.0 0.00 0.00 0.00 20 1000.1
20240226184832 60 198 13.0 20.0 0.00 0.00 0.00 20 1000.3
20240226184332 60 228 17.0 24.0 0.00 0.00 0.00 20 1000.2
20240226183748 60 198 10.0 15.0 0.00 0.00 0.00 20 1000.8
20240226183245 59 243 23.0 30.0 0.00 0.00 0.00 19 1000.7
20240226182744 59 229 18.0 20.0 0.00 0.00 0.00 21 1000.7
20240226182242 60 333 5.0 10.0 0.00 0.00 0.00 24 1000.4
20240226181742 60 316 1.0 10.0 0.00 0.00 0.00 27 1000.7
20240226181240 59 305 7.0 14.0 0.00 0.00 0.00 27 1000.7
20240226180739 60 145 3.0 16.0 0.00 0.00 0.00 27 1000.4
20240226180238 60 274 9.0 13.0 0.00 0.00 0.00 24 1000.9
20240226175738 61 259 11.0 13.0 0.00 0.00 0.00 23 1000.6
20240226175237 59 295 9.0 10.0 0.00 0.00 0.00 25 1000.6
20240226174736 59 223 5.0 8.0 0.00 0.00 0.00 25 1000.9
20240226174236 59 245 8.0 14.0 0.00 0.00 0.00 25 1000.8
20240226173734 60 306 3.0 9.0 0.00 0.00 0.00 26 1000.9
20240226173232 59 195 6.0 14.0 0.00 0.00 0.00 25 1000.8
20240226172730 58 140 11.0 15.0 0.00 0.00 0.00 27 1000.9
20240226172229 57 88 2.0 14.0 0.00 0.00 0.00 30 1001.3
20240226171727 57 78 5.0 14.0 0.00 0.00 0.00 34 1001.0
20240226171226 57 106 5.0 11.0 0.00 0.00 0.00 34 1001.6
20240226170725 56 124 8.0 14.0 0.00 0.00 0.00 36 1001.4
20240226170224 56 126 4.0 7.0 0.00 0.00 0.00 37 1001.7
20240226165721 55 76 4.0 5.0 0.00 0.00 0.00 38 1001.5
20240226165221 55 108 5.0 6.0 0.00 0.00 0.00 38 1001.8
20240226164720 55 194 0.0 1.0 0.00 0.00 0.00 39 1002.1
20240226164218 55 99 3.0 6.0 0.00 0.00 0.00 39 1002.0
20240226163717 57 91 5.0 7.0 0.00 0.00 0.00 38 1002.2
20240226163215 56 237 0.0 2.0 0.00 0.00 0.00 39 1002.3
20240226162713 55 136 5.0 11.0 0.00 0.00 0.00 40 1002.3
20240226162213 55 218 1.0 8.0 0.00 0.00 0.00 40 1002.4
20240226161711 54 140 5.0 7.0 0.00 0.00 0.00 40 1002.4
20240226161208 54 213 4.0 6.0 0.00 0.00 0.00 42 1002.7
20240226160707 53 274 5.0 8.0 0.00 0.00 0.00 43 1002.4
20240226160205 54 185 5.0 7.0 0.00 0.00 0.00 42 1002.7
20240226155703 53 102 5.0 6.0 0.00 0.00 0.00 44 1002.7
20240226155200 53 192 3.0 7.0 0.00 0.00 0.00 44 1002.8
20240226154657 53 200 7.0 10.0 0.00 0.00 0.00 44 1002.8
20240226154156 53 165 8.0 13.0 0.00 0.00 0.00 44 1003.0
20240226153654 52 178 11.0 14.0 0.00 0.00 0.00 45 1002.9
20240226153153 52 213 10.0 14.0 0.00 0.00 0.00 45 1002.9
20240226152652 51 238 8.0 14.0 0.00 0.00 0.00 46 1002.9
20240226152150 51 220 9.0 11.0 0.00 0.00 0.00 47 1002.7
20240226151649 51 226 6.0 10.0 0.00 0.00 0.00 47 1002.7
20240226151148 51 168 3.0 10.0 0.00 0.00 0.00 47 1002.8
20240226150647 50 231 10.0 14.0 0.00 0.00 0.00 49 1002.8
20240226150144 50 211 9.0 16.0 0.00 0.00 0.00 49 1002.4
20240226145643 50 204 8.0 17.0 0.00 0.00 0.00 49 1002.6
20240226145140 50 185 9.0 17.0 0.00 0.00 0.00 49 1002.7
20240226144639 49 220 11.0 15.0 0.00 0.00 0.00 48 1002.9
20240226144139 49 227 11.0 15.0 0.00 0.00 0.00 48 1003.0
20240226143638 49 174 7.0 15.0 0.00 0.00 0.00 49 1003.0
20240226143135 49 198 7.0 14.0 0.00 0.00 0.00 50 1002.7
20240226142634 49 167 11.0 18.0 0.00 0.00 0.00 49 1002.4
20240226142132 48 196 10.0 15.0 0.00 0.00 0.00 50 1002.2
20240226141631 48 191 7.0 15.0 0.00 0.00 0.00 49 1002.4
20240226141129 48 239 8.0 13.0 0.00 0.00 0.00 50 1002.4
20240226140628 47 211 10.0 14.0 0.00 0.00 0.00 50 1002.7
20240226140128 47 202 11.0 13.0 0.00 0.00 0.00 50 1002.3
20240226135626 47 202 6.0 13.0 0.00 0.00 0.00 50 1002.4
20240226135125 47 182 6.0 9.0 0.00 0.00 0.00 50 1002.7
20240226134623 47 213 10.0 14.0 0.00 0.00 0.00 50 1002.4
20240226134120 47 204 5.0 10.0 0.00 0.00 0.00 49 1002.6
20240226133620 47 222 6.0 10.0 0.00 0.00 0.00 49 1002.7
20240226133118 48 187 9.0 13.0 0.00 0.00 0.00 47 1002.8
20240226132614 48 187 9.0 13.0 0.00 0.00 0.00 47 1002.8
20240226132111 48 187 9.0 13.0 0.00 0.00 0.00 47 1002.8
20240226131204 47 256 5.0 9.0 0.00 0.00 0.00 47 1002.6
20240226130703 47 256 5.0 9.0 0.00 0.00 0.00 47 1002.6
20240226130202 47 205 5.0 13.0 0.00 0.00 0.00 46 1002.7
20240226125700 48 258 5.0 10.0 0.00 0.00 0.00 46 1002.7
20240226125159 47 214 7.0 13.0 0.00 0.00 0.00 45 1002.8
20240226124658 47 211 7.0 13.0 0.00 0.00 0.00 46 1002.9
20240226124156 47 185 5.0 7.0 0.00 0.00 0.00 46 1002.8
20240226123656 47 224 6.0 8.0 0.00 0.00 0.00 45 1002.8
20240226123155 47 216 5.0 10.0 0.00 0.00 0.00 45 1002.7
20240226122656 47 194 5.0 7.0 0.00 0.00 0.00 45 1002.9
20240226122155 47 244 1.0 6.0 0.00 0.00 0.00 45 1002.4
20240226121653 47 169 5.0 9.0 0.00 0.00 0.00 45 1002.8
20240226121153 47 194 4.0 6.0 0.00 0.00 0.00 44 1002.7
20240226120652 47 184 7.0 8.0 0.00 0.00 0.00 44 1002.7
20240226120150 46 158 5.0 5.0 0.00 0.00 0.00 44 1002.9
20240226115648 47 172 5.0 7.0 0.00 0.00 0.00 42 1002.8
20240226115148 49 133 5.0 8.0 0.00 0.00 0.00 41 1003.0
20240226114647 49 161 9.0 17.0 0.00 0.00 0.00 40 1003.0
20240226114146 49 107 5.0 9.0 0.00 0.00 0.00 39 1002.8
20240226113646 47 105 10.0 13.0 0.00 0.00 0.00 40 1003.1
20240226113145 47 136 3.0 5.0 0.00 0.00 0.00 40 1003.0
20240226112644 50 162 4.0 5.0 0.00 0.00 0.00 36 1003.1
20240226112143 50 239 2.0 6.0 0.00 0.00 0.00 35 1003.0
20240226111641 50 247 7.0 9.0 0.00 0.00 0.00 36 1003.1
20240226111141 50 278 7.0 13.0 0.00 0.00 0.00 35 1003.3
20240226110641 49 226 4.0 6.0 0.00 0.00 0.00 37 1003.1
20240226110140 50 176 4.0 9.0 0.00 0.00 0.00 35 1003.1
20240226105639 49 102 5.0 9.0 0.00 0.00 0.00 35 1003.1
20240226105138 48 159 3.0 5.0 0.00 0.00 0.00 36 1003.4
20240226104637 50 144 7.0 8.0 0.00 0.00 0.00 34 1003.3
20240226104137 49 129 5.0 6.0 0.00 0.00 0.00 33 1003.3
20240226103634 50 119 3.0 5.0 0.00 0.00 0.00 32 1003.4
20240226103133 50 95 3.0 5.0 0.00 0.00 0.00 31 1003.6
20240226102633 50 155 10.0 13.0 0.00 0.00 0.00 31 1003.5
20240226102132 50 198 3.0 6.0 0.00 0.00 0.00 30 1003.4
20240226101631 46 194 6.0 8.0 0.00 0.00 0.00 32 1003.7
20240226101131 47 260 2.0 2.0 0.00 0.00 0.00 33 1004.0
20240226100629 46 42 2.0 3.0 0.00 0.00 0.00 33 1003.8
20240226100128 50 221 1.0 3.0 0.00 0.00 0.00 30 1004.0
20240226095629 49 192 3.0 7.0 0.00 0.00 0.00 30 1003.6
20240226095128 48 128 3.0 5.0 0.00 0.00 0.00 31 1004.1
20240226094626 48 124 5.0 6.0 0.00 0.00 0.00 31 1003.8
20240226094124 47 153 5.0 6.0 0.00 0.00 0.00 32 1003.8
20240226093623 47 149 5.0 7.0 0.00 0.00 0.00 32 1004.1
20240226093121 48 155 4.0 7.0 0.00 0.00 0.00 30 1004.4
20240226092620 47 159 3.0 5.0 0.00 0.00 0.00 31 1004.6
20240226092120 49 165 4.0 7.0 0.00 0.00 0.00 30 1004.7
20240226091619 51 242 2.0 6.0 0.00 0.00 0.00 27 1004.4
20240226091119 51 264 3.0 7.0 0.00 0.00 0.00 27 1004.4
20240226090619 51 248 5.0 7.0 0.00 0.00 0.00 27 1004.4
20240226090117 52 242 6.0 10.0 0.00 0.00 0.00 26 1004.6
20240226085617 51 211 7.0 11.0 0.00 0.00 0.00 27 1004.8
20240226085115 51 226 6.0 9.0 0.00 0.00 0.00 27 1004.7
20240226084615 51 252 8.0 11.0 0.00 0.00 0.00 26 1004.6
20240226084114 52 238 6.0 11.0 0.00 0.00 0.00 26 1004.6
20240226083613 52 220 13.0 17.0 0.00 0.00 0.00 26 1004.7
20240226083113 52 258 16.0 22.0 0.00 0.00 0.00 26 1004.4
20240226082611 52 242 10.0 18.0 0.00 0.00 0.00 26 1004.9
20240226082109 52 268 15.0 20.0 0.00 0.00 0.00 25 1004.6
20240226081607 52 217 12.0 18.0 0.00 0.00 0.00 26 1004.8
20240226081106 52 255 12.0 18.0 0.00 0.00 0.00 26 1004.9
20240226080605 52 286 13.0 20.0 0.00 0.00 0.00 25 1004.8
20240226080104 52 256 16.0 17.0 0.00 0.00 0.00 26 1004.7
20240226075602 53 240 15.0 22.0 0.00 0.00 0.00 26 1004.7
20240226075102 53 259 12.0 18.0 0.00 0.00 0.00 25 1004.9
20240226074601 53 242 17.0 22.0 0.00 0.00 0.00 25 1004.9
20240226074100 52 259 8.0 14.0 0.00 0.00 0.00 25 1005.0
20240226073558 53 244 18.0 23.0 0.00 0.00 0.00 25 1005.3
20240226073056 52 243 8.0 11.0 0.00 0.00 0.00 26 1005.0
20240226072555 52 190 9.0 14.0 0.00 0.00 0.00 25 1005.3
20240226072055 52 242 8.0 15.0 0.00 0.00 0.00 25 1005.1
20240226071552 52 221 13.0 15.0 0.00 0.00 0.00 25 1005.4
20240226071052 52 243 10.0 13.0 0.00 0.00 0.00 25 1005.1
20240226070550 53 228 13.0 15.0 0.00 0.00 0.00 25 1005.5
20240226070048 53 242 12.0 20.0 0.00 0.00 0.00 25 1005.4
20240226065548 52 233 8.0 16.0 0.00 0.00 0.00 25 1005.5
20240226065046 53 260 15.0 17.0 0.00 0.00 0.00 25 1005.4
20240226064546 52 255 16.0 22.0 0.00 0.00 0.00 24 1005.8
20240226064044 53 245 8.0 18.0 0.00 0.00 0.00 24 1005.5
20240226063542 52 214 11.0 16.0 0.00 0.00 0.00 24 1005.5